COSMOS 1275 DEB, 42230

Orbit data source: Space-Track

COSMOS 1275 DEB, 42230 is space debris in LEO originally from a launch on Thu, 04 Jun 1981 UTC launched from the Plesetsk Missile And Space Complex (PKMTR). Debris objects in space refer to the collection of defunct objects orbiting the Earth. Examples of debris include non-operational satellites, rocket bodies, and fragments generated from explosions, collisions, or faulty payload assembly.

Loading next visibility...
Identifier
42230, 1981-053UW
Orbit
LEO
Country
Flag of CISCIS
Related business
Manufacturer
Unknown
Mission
Spacecraft
Bus & Motor
Unknown
Mass
Unknown
Launch date (UTC)
1981-06-04 (45 years ago)
Launch vehicle
Unknown
Launch site
Plesetsk Missile And Space Complex (PKMTR)
Object type
Payload
Rocket body
Debris
Shape & HBR
Unknown shape, 0.1 m
Radar Cross Section
Small (<0.1 m²)

Expand to show TLE details & history
Last TLE update: 3 days ago

TLE from 3 days ago
0 COSMOS 1275 DEB
1 42230U 81053UW  26260.67540533  .00002723  00000-0  13343-2 0  9997
2 42230  82.7447 246.9545 0041311  23.4037 336.9010 14.17088071640109
Epoch: 2026-09-17T16:12Z
TLE epoch observation values (Epoch: 2026-09-17T16:12:35.020Z)
Latitude
-0.00004°
Longitude
7.19934°
Altitude
810.774 km
Speed
7.462 km/s
True Right ascension
16h 27m 49s
True Declination
0° 00' 00"
Sunlit
Object was in daylight at epoch
Visualization orbit readout
Latitude
Unknown
Longitude
Unknown
Altitude
Unknown
Speed
Unknown
Apparent Right ascension
Unknown
Apparent Declination
Unknown
Sunlit
N/A
Visualization observer readout
Local Sidereal Time
14:01:23
Azimuth
Unknown
Elevation
Unknown
Doppler factor
Unknown
Orbital elements
Apogee altitude
862.103 km
Perigee altitude
802.529 km
Semi-major axis
7,210.453 km
Eccentricity
0.00413
Inclination
82.7447°
RAAN
246.9545°
Arg. of periapsis
23.4037°
True anomaly
336.71439°
Mean anomaly
336.901°
Eccentric anomaly
336.80779°
Mean motion
3.54486 °/min
Orbital period
101.56 mins
BSTAR
0.0013343
Loading maneuver chart data...
Computing Atmospheric mass density...

Documentation

Showing up to 5 results
|